Regional Weather Roundup
Issued by NWS Albany, NY

Home | Current Version | Previous Version | Graphics & Text | Print | Product List | Glossary Off
Versions: 1 2 3 4 5 6 7 8 9 10 11 12 13 14 15 16 17 18 19 20 21 22 23 24 25 26 27 28 29 30 31 32 33 34 35 36 37 38 39 40 41 42 43 44 45 46 47 48 49 50

264
ASUS41 KALY 271210
RWRALY

NEW YORK STATE HOURLY WEATHER ROUNDUP
NATIONAL WEATHER SERVICE ALBANY NY
700 AM EST MON FEB 27 2017

NOTE: "FAIR" INDICATES FEW OR NO CLOUDS BELOW 12,000 FEET WITH NO
SIGNIFICANT WEATHER AND/OR NO OBSTRUCTIONS TO VISIBILITY.

NYZ032-033-038>043-046>054-057>066-NYZ062>081-082-084-271300-
EAST


CITY           SKY/WX    TMP DP  RH WIND       PRES   REMARKS
ALBANY         PTCLDY    29  18  63 S12       30.25R WCI  19
GLENS FALLS    CLEAR     28  18  66 SW7       30.21S WCI  21
POUGHKEEPSIE   CLEAR     23  19  85 CALM      30.33S
NEWBURGH       CLEAR     28  19  69 CALM      30.33S
MONTGOMERY     CLEAR     25  18  74 SW6       30.32R WCI  18
WHITE PLAINS   CLEAR     32  16  51 W5        30.34R WCI  27
ISLIP          CLEAR     31  24  75 SW7       30.37S WCI  24
NEW YORK CITY  PTCLDY    38  20  48 SW8       30.37S WCI  32
CENTRAL PARK   CLEAR     36  19  50 W8G18     30.38F WCI  30
$$

NYZ005>009-017-018-044>046-055-056-271300-
CENTRAL


CITY           SKY/WX    TMP DP  RH WIND       PRES   REMARKS
FULTON         CLEAR     35  18  49 SW9       30.17R WCI  28
SYRACUSE       PTCLDY    37  16  42 SW16G23   30.18R WCI  28
ROME           PTCLDY    23  20  88 CALM      30.20R
ELMIRA         CLEAR     23  16  74 CALM      30.25R
BINGHAMTON     CLEAR     29  14  53 SW10G20   30.21R WCI  20
MONTICELLO     CLEAR    N/A N/A N/A N3        30.28R
$$

NYZ026>034-041>043-087-271300-
NORTH


CITY           SKY/WX    TMP DP  RH WIND       PRES   REMARKS
WATERTOWN      MOCLDY    36  21  54 S14G21    30.12R WCI  27
FORT DRUM      NOT AVBL
OGDENSBURG     FAIR      35  28  75 SW13      30.07R WCI  26
MASSENA        MOCLDY    36  24  62 SW16      30.06R WCI  26
SARANAC LAKE   CLEAR     25  19  78 SW8       30.04R WCI  16
PLATTSBURGH    CLEAR     30  21  69 S9G20     30.09R WCI  22
$$

NYZ001>004-010>016-019>021-085-271300-
WEST


CITY           SKY/WX    TMP DP  RH WIND       PRES   REMARKS
NIAGARA FALLS  PTCLDY    39  24  55 SW20G25   30.17R WCI  29
BUFFALO        PTCLDY    38  20  48 SW16G26   30.17R WCI  29
DUNKIRK        CLOUDY    36  19  50 S14       30.21R WCI  27
JAMESTOWN      CLOUDY    30  14  51 S7        30.19R WCI  23
WELLSVILLE     CLOUDY    32  13  45 SW9G18    30.18R WCI  24
ROCHESTER      PTCLDY    33  19  56 SW8       30.17R WCI  26
PENN YAN       CLEAR     34  17  50 S14       30.19R WCI  25
$$

             KEY
       WCI = WIND CHILL INDEX
       VSB = VISIBILITY
       HX  = HEAT INDEX
$$




USA.gov is the U.S. government's official web portal to all federal, state and local government web resources and services.